Sitka, AK

10:58 PM AKDT on September 24, 2017 (GMT -0800)
Sitka Rocky Gutierrez

Weather History for PASI - November, 2013

Change the Weather History Date:

Friday, November 22, 2013

  Actual Average Record
Temperature  
Mean Temperature 48 °F -  
Max Temperature 51 °F 42 °F 57 °F (2005)
Min Temperature 44 °F 34 °F 17 °F (1996)
Degree Days  
Heating Degree Days 18    
Moisture  
Dew Point 39 °F    
Average Humidity 73    
Maximum Humidity 80    
Minimum Humidity 63    
Precipitation  
Precipitation 0.60 in - - ()
Sea Level Pressure  
Sea Level Pressure 29.98 in    
Wind  
Wind Speed 23 mph (SE)    
Max Wind Speed 31 mph    
Max Gust Speed 46 mph    
Visibility 8 miles    
Events Rain    
Averages and records for this station are not official NWS values.
T = Trace of Precipitation, MM = Missing Value Source: NWS Daily Summary

Daily Weather History Graph

Daily Weather History Graph

Search for Another Location

Airport or City:

Trip Planner

Search our weather history database for the weather conditions in past years. The results will help you decide how hot, cold, wet, or windy it might be!

Date:

Astronomy

Nov. 22, 2013 Rise Set
Actual Time 7:58 AM AKST 3:36 PM AKST
Civil Twilight 7:13 AM AKST 4:21 PM AKST
Nautical Twilight 6:24 AM AKST 5:09 PM AKST
Astronomical Twilight 5:39 AM AKST 5:55 PM AKST
Moon 8:34 PM AKST (11/22) 11:31 AM AKST (11/22)
Length of Visible Light 9h 08m
Length of Day
7h 37m
Waning Gibbous, 77% of the Moon is Illuminated
Nov 22
Waning Gibbous
Nov 25
Last Quarter
Dec 2
New
Dec 9
First Quarter
Dec 17
Full

Hourly Weather History & Observations

Time (AKST) Temp. Windchill Dew Point Humidity Pressure Visibility Wind Dir Wind Speed Gust Speed Precip Events Conditions
12:53 AM 50.0 °F - 44.1 °F 80% 30.15 in 6.0 mi SSE 17.3 mph 26.5 mph 0.03 in Rain Light Rain
1:53 AM 51.1 °F - 45.0 °F 80% 30.14 in 7.0 mi South 24.2 mph 36.8 mph 0.02 in Rain Light Rain
3:53 AM 50.0 °F - 44.1 °F 80% 30.14 in 7.0 mi South 31.1 mph 46.0 mph 0.07 in Rain Light Rain
4:50 AM 51.8 °F - 42.8 °F 71% 30.13 in 10.0 mi South 25.3 mph 41.4 mph 0.01 in   Overcast
4:53 AM 51.1 °F - 42.1 °F 71% 30.14 in 10.0 mi South 27.6 mph 41.4 mph 0.01 in   Overcast
5:00 AM 51.1 °F - 41.0 °F 68% 30.13 in 10.0 mi South 27.6 mph 38.0 mph N/A   Overcast
5:53 AM 51.1 °F - 39.9 °F 66% 30.12 in 10.0 mi SSE 25.3 mph 39.1 mph 0.01 in Rain Light Rain
6:53 AM 50.0 °F - 39.0 °F 66% 30.11 in 10.0 mi SSE 16.1 mph 21.9 mph 0.00 in Rain Light Rain
7:53 AM 50.0 °F - 37.9 °F 63% 30.09 in 10.0 mi SE 19.6 mph 35.7 mph 0.00 in   Overcast
8:53 AM 48.0 °F - 39.0 °F 71% 30.08 in 10.0 mi ESE 19.6 mph 27.6 mph 0.00 in Rain Light Rain
9:53 AM 46.9 °F - 39.0 °F 74% 30.07 in 8.0 mi ESE 18.4 mph 27.6 mph 0.04 in Rain Light Rain
10:53 AM 46.0 °F 38.5 °F 39.0 °F 76% 30.05 in 5.0 mi ESE 19.6 mph - 0.02 in Rain Light Rain
11:53 AM 46.0 °F 37.8 °F 37.9 °F 73% 30.02 in 6.0 mi ESE 23.0 mph 32.2 mph 0.04 in Rain Light Rain
12:53 PM 46.0 °F 37.8 °F 37.9 °F 73% 29.98 in 5.0 mi ESE 23.0 mph 32.2 mph 0.04 in Rain Rain
1:53 PM 45.0 °F 36.6 °F 37.0 °F 74% 29.96 in 7.0 mi ESE 21.9 mph 39.1 mph 0.06 in Rain Light Rain
2:53 PM 45.0 °F 35.4 °F 37.9 °F 76% 29.94 in 5.0 mi East 28.8 mph 35.7 mph 0.04 in Rain Rain
3:53 PM 46.0 °F 37.4 °F 37.0 °F 71% 29.91 in 10.0 mi East 25.3 mph 34.5 mph 0.03 in Rain Light Rain
4:53 PM 46.0 °F 37.6 °F 37.0 °F 71% 29.88 in 10.0 mi ESE 24.2 mph 38.0 mph 0.01 in Rain Light Rain
5:53 PM 46.0 °F 37.0 °F 37.0 °F 71% 29.86 in 10.0 mi East 27.6 mph 36.8 mph 0.01 in Rain Light Rain
6:53 PM 45.0 °F 35.6 °F 37.0 °F 74% 29.83 in 8.0 mi ESE 27.6 mph 35.7 mph 0.02 in Rain Light Rain
7:53 PM 45.0 °F 36.6 °F 37.0 °F 74% 29.82 in 7.0 mi ESE 21.9 mph 35.7 mph 0.04 in Rain Light Rain
8:53 PM 45.0 °F 36.0 °F 37.0 °F 74% 29.79 in 8.0 mi ESE 25.3 mph 40.3 mph 0.04 in Rain Light Rain
9:53 PM 44.1 °F 34.4 °F 37.0 °F 76% 29.76 in 7.0 mi East 27.6 mph 38.0 mph 0.03 in Rain Light Rain
10:53 PM 45.0 °F 35.6 °F 37.0 °F 74% 29.74 in 8.0 mi ESE 27.6 mph 38.0 mph 0.02 in Rain Light Rain
11:53 PM 45.0 °F 35.6 °F 37.0 °F 74% 29.74 in 8.0 mi East 27.6 mph 40.3 mph 0.02 in Rain Light Rain